Location: Baia Mare
(47.6567°N, 23.5850°E)
Time: 12:32:53
(UTC+02:00)

ISS - Pass Details

Date: 26 January 2019
Orbit: 404 x 407 km, 51.6° (Epoch: 16 January)

Event Time Altitude Azimuth Distance (km) Brightness Sun altitude
Rises 20:11:34 0° 270° (W) 2,324 1.2 -29.3°
Reaches altitude 10° 20:13:43 10° 277° (W) 1,466 -0.1 -29.6°
Enters shadow 20:14:21 15° 281° (W) 1,224 -0.6 -29.8°
